Biloxi, MS

12:55 PM CDT on August 26, 2016 (GMT -0500)
Keesler Air Force Base

Weather History for KBIX - March, 2014

Change the Weather History Date:

Wednesday, March 19, 2014

  Actual Average Record
Temperature  
Mean Temperature 58 °F -  
Max Temperature 67 °F 70 °F 81 °F (1992)
Min Temperature 51 °F 54 °F 36 °F (1949)
Degree Days  
Heating Degree Days 6    
Growing Degree Days 8 (Base 50)    
Moisture  
Dew Point 54 °F    
Average Humidity 84    
Maximum Humidity 100    
Minimum Humidity 69    
Precipitation  
Precipitation 0.00 in - - ()
Sea Level Pressure  
Sea Level Pressure 30.07 in    
Wind  
Wind Speed 8 mph (South)    
Max Wind Speed 13 mph    
Max Gust Speed 17 mph    
Visibility 10 miles    
Events      
Averages and records for this station are not official NWS values.
T = Trace of Precipitation, MM = Missing Value Source: NWS Daily Summary

Daily Weather History Graph

Daily Weather History Graph

Search for Another Location

Airport or City:

Trip Planner

Search our weather history database for the weather conditions in past years. The results will help you decide how hot, cold, wet, or windy it might be!

Date:

Astronomy

Mar. 19, 2014 Rise Set
Actual Time 7:00 AM CDT 7:06 PM CDT
Civil Twilight 6:36 AM CDT 7:30 PM CDT
Nautical Twilight 6:08 AM CDT 7:58 PM CDT
Astronomical Twilight 5:40 AM CDT 8:26 PM CDT
Moon 10:09 PM CDT (3/19) 8:39 AM CDT (3/19)
Length of Visible Light 12h 53m
Length of Day
12h 05m
Waning Gibbous, 91% of the Moon is Illuminated
Mar 19
Waning Gibbous
Mar 23
Last Quarter
Mar 30
New
Apr 7
First Quarter
Apr 15
Full

Hourly Weather History & Observations

Time (CDT) Temp. Dew Point Humidity Pressure Visibility Wind Dir Wind Speed Gust Speed Precip Events Conditions
12:08 AM 53.6 °F 50.0 °F 88% 30.02 in 10.0 mi South 8.1 mph - N/A   Mostly Cloudy
12:38 AM 53.6 °F 50.0 °F 88% 30.02 in 10.0 mi SSW 8.1 mph - N/A   Mostly Cloudy
12:53 AM 55.4 °F 50.0 °F 82% 30.02 in 10.0 mi SSW 8.1 mph - N/A   Mostly Cloudy
12:58 AM 54.5 °F 50.0 °F 85% 30.03 in 10.0 mi SSW 11.5 mph - N/A   Mostly Cloudy
1:08 AM 55.4 °F 50.0 °F 82% 30.02 in 10.0 mi SSW 9.2 mph - N/A   Mostly Cloudy
1:28 AM 55.4 °F 50.0 °F 82% 30.03 in 10.0 mi SSW 9.2 mph - N/A   Mostly Cloudy
1:58 AM 54.3 °F 50.4 °F 86% 30.03 in 10.0 mi SSW 8.1 mph - N/A   Mostly Cloudy
2:03 AM 53.6 °F 50.0 °F 88% 30.02 in 10.0 mi SSW 8.1 mph - N/A   Mostly Cloudy
2:18 AM 55.4 °F 50.0 °F 82% 30.02 in 10.0 mi SSW 9.2 mph - N/A   Scattered Clouds
2:58 AM 54.7 °F 51.4 °F 89% 30.02 in 10.0 mi South 5.8 mph - N/A   Partly Cloudy
3:58 AM 55.0 °F 52.0 °F 89% 30.01 in 10.0 mi South 8.1 mph - N/A   Clear
4:58 AM 56.1 °F 53.1 °F 89% 30.02 in 10.0 mi South 5.8 mph - N/A   Clear
5:58 AM 56.3 °F 53.8 °F 91% 30.04 in 10.0 mi South 4.6 mph - N/A   Clear
6:43 AM 55.4 °F 53.6 °F 94% 30.06 in 10.0 mi NNW 1.2 mph - N/A   Mostly Cloudy
6:58 AM 54.1 °F 52.9 °F 95% 30.09 in 10.0 mi North 4.6 mph - N/A   Overcast
7:53 AM 51.8 °F 51.8 °F 100% 30.11 in 10.0 mi NE 3.5 mph - N/A   Overcast
7:58 AM 51.4 °F 51.1 °F 99% 30.12 in 10.0 mi NE 4.6 mph - N/A   Overcast
8:58 AM 53.8 °F 51.8 °F 93% 30.15 in 10.0 mi NE 4.6 mph - N/A   Mostly Cloudy
9:58 AM 60.3 °F 54.1 °F 80% 30.15 in 10.0 mi Variable 2.3 mph - N/A   Clear
10:58 AM 64.2 °F 54.1 °F 70% 30.16 in 10.0 mi SSE 5.8 mph - N/A   Clear
11:58 AM 65.3 °F 55.2 °F 70% 30.14 in 10.0 mi South 10.4 mph - N/A   Clear
12:58 PM 66.2 °F 56.5 °F 71% 30.12 in 10.0 mi South 10.4 mph - N/A   Clear
1:58 PM 66.4 °F 56.7 °F 71% 30.10 in 10.0 mi South 10.4 mph 17.3 mph N/A   Clear
2:58 PM 66.6 °F 56.8 °F 71% 30.08 in 10.0 mi South 12.7 mph - N/A   Clear
3:58 PM 66.4 °F 55.9 °F 69% 30.07 in 10.0 mi South 11.5 mph - N/A   Clear
4:58 PM 66.2 °F 57.0 °F 72% 30.07 in 10.0 mi South 11.5 mph - N/A   Clear
5:58 PM 64.9 °F 56.7 °F 74% 30.08 in 10.0 mi South 9.2 mph - N/A   Clear
6:58 PM 62.4 °F 57.2 °F 83% 30.08 in 10.0 mi SSW 8.1 mph - N/A   Clear
7:58 PM 61.2 °F 56.8 °F 86% 30.09 in 10.0 mi SSW 4.6 mph - N/A   Clear
8:58 PM 61.5 °F 57.0 °F 85% 30.11 in 10.0 mi SSW 6.9 mph - N/A   Clear
9:58 PM 60.6 °F 56.8 °F 87% 30.11 in 10.0 mi SSW 8.1 mph - N/A   Clear
10:58 PM 59.7 °F 56.8 °F 90% 30.11 in 10.0 mi SSW 5.8 mph - N/A   Clear
11:58 PM 59.0 °F 57.4 °F 94% 30.10 in 10.0 mi SW 3.5 mph - N/A   Clear